Regional Weather Roundup
Issued by NWS San Diego, CA

Home | Current Version | Previous Version | Text Only | Print | Product List | Glossary On
Versions: 1 2 3 4 5 6 7 8 9 10 11 12 13 14 15 16 17 18 19 20 21 22 23 24 25 26 27 28 29 30 31 32 33 34 35 36 37 38 39 40 41 42 43 44 45 46 47 48 49 50
000
ASUS46 KSGX 042111
RWRSGX

SAN DIEGO HOURLY WEATHER ROUNDUP
NATIONAL WEATHER SERVICE SAN DIEGO CA
200 PM PDT FRI SEP 04 2015

NOTE: "FAIR" INDICATES FEW OR NO CLOUDS BELOW 12,000 FEET WITH NO
SIGNIFICANT WEATHER AND/OR OBSTRUCTIONS TO VISIBILITY.

CAZ042-043-060-061-PZZ750-775-042200-

GREATER SAN DIEGO AREA

CITY           SKY/WX    TMP DP  RH WIND       PRES   REMARKS
LINDBERGH FLD  FAIR      75  57  53 W12G18    29.89F
POINT LOMA       N/A     73  58  59 NW17        N/A
NATIONAL CITY    N/A     75  60  58 SW7       29.88F
CHULA VISTA      N/A     76  62  61 W10       29.81F
IMPERIAL BEACH FAIR      74  55  51 W14       29.88F
BROWN FIELD    FAIR      74  57  55 NW9       29.88S
MIRAMAR MCAS   FAIR      77  56  48 NW8       29.87F
MONTGOMERY FLD FAIR      76  57  51 SW12      29.87F

$$

NORTH SAN DIEGO COUNTY

CITY           SKY/WX    TMP DP  RH WIND       PRES   REMARKS
CAMP PENDLETON FAIR      77  55  46 SW9       29.86F
OCEANSIDE AP   FAIR      75  58  55 W14       29.86F
OCEANSIDE HBR    N/A     71  63  75 W10       29.89F
VISTA            N/A     74  60  61 SW5       29.84F
CARLSBAD       FAIR      73  58  59 W12       29.87F
DEL MAR          N/A     75  61  60 NW3       29.90F
LA JOLLA SCRIP   N/A    N/A N/A N/A W3        29.85F
FALLBROOK        N/A     78  58  49 S6        29.85F
ESCONDIDO        N/A     80  59  48 SW9       29.87F
SAN MARCOS       N/A     74  60  59 NW12      29.84F
POWAY            N/A     80  58  46 SW7       29.87S

$$

EAST SAN DIEGO COUNTY

CITY           SKY/WX    TMP DP  RH WIND       PRES   REMARKS
RAMONA         FAIR      78  55  44 W13       29.88F
SANTEE LAKES     N/A     78  58  50 S10       29.85S
LA MESA          N/A     76  57  51 NW7       29.80F
JAMUL            N/A     78  59  52 W10       29.84F
CAMPO            N/A     79  47  32 SW8       29.87F

$$

ORANGE COUNTY AND THE LOS ANGELES BASIN

CITY           SKY/WX    TMP DP  RH WIND       PRES   REMARKS
JOHN WAYNE AP  FAIR      76  56  49 SW12      29.86F
LAGUNA BEACH     N/A     76  61  58 S7        29.83F
LAKE FOREST FR   N/A     79  56  44 CALM      29.75F
SANTA ANA        N/A     81  60  48 W5        29.81F
HUNTINGTON BCH   N/A     77  60  55 SW10      29.89F
LOS ALAMITOS   SUNNY     78  58  50 S12       29.86F
FULLERTON      FAIR      79  56  45 S13G18    29.84F
LONG BEACH     FAIR      77  55  46 S12       29.86F
L.A. AP        FAIR      74  58  57 W13       29.87F
L.A. DOWNTOWN  FAIR      77  57  50 CALM      29.85F

$$

THE INLAND EMPIRE

CITY           SKY/WX    TMP DP  RH WIND       PRES   REMARKS
CORONA         FAIR      80  55  42 W8        29.85F
CHINO          FAIR      81  53  37 SE5       29.86F
ONTARIO        FAIR      79  52  38 VRB7      29.86F
SAN BERNARDINO SUNNY     79  46  31 W7        29.86F
RIVERSIDE AP   FAIR      81  54  39 VRB6      29.85F
MORENO VALLEY    N/A     82  57  42 SE2       29.84F
MARCH ARB      FAIR      81  51  34 VRB3      29.86F
HORSETHIEF CYN   N/A     80  49  33 NW7       29.86F
PERRIS           N/A     80  51  36 S5        29.87F
HEMET EAST       N/A     77  50  38 CALM      29.87F
FRENCH VALLEY  FAIR      77  54  44 S6        29.87F
TEMECULA         N/A     80  59  48 SW8       29.81F

$$

SAN BERNARDINO AND RIVERSIDE COUNTY MOUNTAINS

CITY           SKY/WX    TMP DP  RH WIND       PRES   REMARKS
BIG BEAR AP    FAIR      70  12  11 SW9       30.08S
ANGELUS OAKS     N/A     69  48  46 SW2       29.72S
PINE COVE        N/A     69  30  23 SE3       29.79R

$$

SOUTHERN DESERT INCLUDING THE COACHELLA VALLEY

CITY           SKY/WX    TMP DP  RH WIND       PRES   REMARKS
PALM SPRINGS   FAIR      94  54  25 VRB7      29.75F
THOUSAND PALMS   N/A     94  55  26 NW5       29.71F
PALM DESERT      N/A     97  64  33 N5        30.16F HX  99
THERMAL        FAIR      99  43  14 S12       29.67F HX  95
BLYTHE         FAIR      98  58  26 S15G24    29.72F HX  97
IMPERIAL AP    FAIR      99  58  25 VRB6      29.68F HX  98
EL CENTRO NAS  FAIR      99  56  23 VRB3      29.70F HX  97
YUMA AZ        FAIR      98  59  27 SW9       29.71F HX  98
MEXICALI       SUNNY     99  50  19 E8        29.71F HX  95

$$

UPPER DESERT

CITY           SKY/WX    TMP DP  RH WIND       PRES   REMARKS
VICTORVILLE AP FAIR      82  25  12 S12       29.86F
HESPERIA         N/A     81  37  20 W3        29.85F
APPLE VALLEY     N/A     81  24  12 S16G33    29.92F
PALMDALE       FAIR      82  35  18 SW17      29.85F
LANCASTER      FAIR      82  37  20 SW20G26   29.85F
EDWARDS AFB    PTSUNNY   85  31  14 SW12      29.81F
DAGGETT        FAIR      90  27  10 NW9G23    29.78F
29 PALMS N     FAIR      92  35  13 SW17G25   29.85F
NEEDLES        FAIR     100  49  17 S18G28    29.73F HX  97

$$

REGIONAL REPORTS

CITY           SKY/WX    TMP DP  RH WIND       PRES   REMARKS
SANTA BARBARA  FAIR      76  58  53 W10       29.86F
SANDBERG       FAIR      72  47  40 S13       29.98F
LAS VEGAS NV   PTSUNNY   92  47  21 S9G16     29.71F
PHOENIX AZ     PTSUNNY   95  61  32 SE12      29.80F HX  95
TIJUANA        SUNNY     75  52  43 W8        29.90S
ENSENADA NW      N/A     74  32  21 W3        29.85F

$$

OFFSHORE ISLANDS

CITY           SKY/WX    TMP DP  RH WIND       PRES   REMARKS
CATALINA ARPT  CLOUDY    66  58  75 W9        29.92F
SAN CLEMENTE I PTSUNNY   70  59  68 SW9       29.90F
SAN NICOLAS IS FAIR      69  60  73 NW15G23   29.89F

$$

MARINE AND OFFSHORE BUOY REPORTS

STATION/POSITION SKY/WX   TEMP    WIND        PRES    SWELL
                          AIR SEA DIR/SP/G            HT/PER/DIR
                          (F)     (DEG/KT/KT) (MB)    (FT/S/D)
TANNER BANKS               66 68  320/ 14/ 17 1012.4F   5/310/ 8
S CLEMENTE BASIN           67 71  260/ 10/ 12 1012.1F   5/190/11
SO. S. ROSA ISLA           63 65  320/ 17/ 19 1011.3F   5/11
W. S. BARBARA CH           63 66  320/ 17/ 21 1011.5F   5/310/10
M. S. BARBARA CH           68 71  270/ 12/ 14 1012.3F
S. MONICA BASIN            68 73  220/  4/  6 1011.5F   3/190/11
S PEDRO CHANNEL               74                N/A     2/200/12
DANA POINT                    74                N/A     2/200/13
OCEANSIDE OFFSHR              74                N/A     2/230/11
TORREY PINES OTR              74                N/A     2/230/12
LA JOLLA 1                 70 72  260/  8/ 10 1011.9F
MISSION BAY BUOY              73                N/A     3/230/12
SAN DIEGO BAY                 77              1012.5F
POINT LOMA SOUTH              73                N/A     2/200/11

$$



USA.gov is the U.S. government's official web portal to all federal, state and local government web resources and services.